Satellite-Ground Cal/Val Region Overpasses Predictions

Prediction of Satellite NPP Overpassing Cal/Val Region: PacNW

Region Location: (Latitude: 10.00, Longitude: 139.50) to (Latitude: 22.70, Longitude: 165.60).

Table of predicted overpasses for the next 14.0 days since TLE Epoch: 9/18/2014
Interval Starting Time Starting Location Ending Time Ending Location
1 09/18/2014 14:38:24 ( 11.88, 165.59) 09/18/2014 14:38:55 ( 10.06, 165.17)
2 09/18/2014 16:16:50 ( 22.67, 142.80) 09/18/2014 16:20:25 ( 10.05, 139.80)
3 09/19/2014 03:25:56 ( 10.05, 150.31) 09/19/2014 03:29:31 ( 22.67, 147.30)
4 09/19/2014 15:57:49 ( 22.67, 147.56) 09/19/2014 16:01:24 ( 10.05, 144.56)
5 09/20/2014 03:06:54 ( 10.05, 155.07) 09/20/2014 03:10:29 ( 22.67, 152.06)
6 09/20/2014 15:38:47 ( 22.67, 152.32) 09/20/2014 15:42:22 ( 10.05, 149.31)
7 09/21/2014 02:47:53 ( 10.05, 159.83) 09/21/2014 02:51:28 ( 22.67, 156.82)
8 09/21/2014 15:19:46 ( 22.67, 157.08) 09/21/2014 15:23:21 ( 10.05, 154.07)
9 09/22/2014 02:28:52 ( 10.05, 164.58) 09/22/2014 02:32:27 ( 22.67, 161.58)
10 09/22/2014 15:00:44 ( 22.67, 161.84) 09/22/2014 15:04:19 ( 10.04, 158.83)
11 09/23/2014 03:51:19 ( 10.00, 143.98) 09/23/2014 03:54:55 ( 22.68, 140.96)
12 09/23/2014 14:42:52 ( 18.61, 165.60) 09/23/2014 14:45:18 ( 10.04, 163.59)
13 09/23/2014 16:23:13 ( 22.66, 141.22) 09/23/2014 16:25:13 ( 15.62, 139.51)
14 09/24/2014 03:32:18 ( 10.01, 148.74) 09/24/2014 03:35:54 ( 22.68, 145.72)
15 09/24/2014 16:04:11 ( 22.65, 145.97) 09/24/2014 16:07:46 ( 10.03, 142.97)
16 09/25/2014 03:13:16 ( 10.01, 153.49) 09/25/2014 03:16:52 ( 22.69, 150.47)
17 09/25/2014 15:45:10 ( 22.64, 150.73) 09/25/2014 15:48:45 ( 10.02, 147.72)
18 09/26/2014 02:54:15 ( 10.02, 158.25) 09/26/2014 02:57:51 ( 22.70, 155.23)
19 09/26/2014 15:26:07 ( 22.70, 155.50) 09/26/2014 15:29:43 ( 10.02, 152.48)
20 09/27/2014 02:35:13 ( 10.02, 163.01) 09/27/2014 02:38:48 ( 22.65, 160.00)
21 09/27/2014 15:07:06 ( 22.69, 160.26) 09/27/2014 15:10:42 ( 10.01, 157.24)
22 09/28/2014 02:18:49 ( 19.25, 165.60) 09/28/2014 02:19:47 ( 22.65, 164.76)
23
